Simultaneous Nadir Overpasses (SNOs) Predictions

Prediction of SNOs between AQUA and METOP-B Satellite Orbit:

Table of predicted SNOs for the next 14.0 days since TLE Epoch: 3/2/2013
Index Date (AQUA) Time (AQUA) Lat,Lon (AQUA) SZA (AQUA ) Date (METOP-B) Time (METOP-B) Lat,Lon (METOP-B) SZA (METOP-B ) Distance(km) Time Diff (sec)
1 03/02/2013 15:37:18 73.68, -59.81 80.74 03/02/2013 15:36:34 73.68, -59.92 80.76 3.43 44
2 03/02/2013 16:26:45 -73.76, 107.66 99.19 03/02/2013 16:27:14 -73.75, 107.57 99.19 2.79 29
3 03/05/2013 11:11:36 73.71, 6.55 79.69 03/05/2013 11:10:57 73.70, 6.53 79.69 1.86 39
4 03/05/2013 12:01:03 -73.79, 174.02 100.24 03/05/2013 12:01:37 -73.78, 174.03 100.26 1.90 34
5 03/08/2013 06:45:53 73.72, 72.97 78.60 03/08/2013 06:45:20 73.71, 72.96 78.60 1.22 33
6 03/08/2013 07:35:20 -73.79,-119.55 101.34 03/08/2013 07:36:00 -73.79,-119.51 101.35 1.07 40
7 03/11/2013 02:20:09 73.74, 139.36 77.51 03/11/2013 02:19:42 73.71, 139.38 77.49 3.33 27
8 03/11/2013 03:09:36 -73.81, -53.16 102.43 03/11/2013 03:10:22 -73.81, -53.07 102.44 2.82 46
9 03/13/2013 21:04:46 -73.13, 39.45 104.25 03/13/2013 21:03:39 -73.04, 36.94 104.22 81.75 67
10 03/13/2013 21:54:25 73.74,-154.19 76.39 03/13/2013 21:54:05 73.72,-154.21 76.38 2.40 20
11 03/13/2013 22:43:52 -73.81, 13.30 103.55 03/13/2013 22:44:45 -73.82, 13.36 103.55 2.36 53
